TimePST,TemperatureF,Dew PointF,Humidity,Sea Level PressureIn,VisibilityMPH,Wind Direction,Wind SpeedMPH,Gust SpeedMPH,PrecipitationIn,Events,Conditions,WindDirDegrees,DateUTC
12:53 AM,43.0,39.0,86,30.04,10.0,West,6.9,-,N/A,,Clear,260,2012-12-31 08:53:00
1:53 AM,41.0,37.9,89,30.06,10.0,West,6.9,-,N/A,,Clear,270,2012-12-31 09:53:00
2:53 AM,39.9,36.0,86,30.07,10.0,Calm,Calm,-,N/A,,Clear,0,2012-12-31 10:53:00
3:53 AM,39.9,36.0,86,30.07,10.0,Calm,Calm,-,N/A,,Clear,0,2012-12-31 11:53:00
4:53 AM,39.0,35.1,86,30.08,10.0,Calm,Calm,-,N/A,,Clear,0,2012-12-31 12:53:00
5:53 AM,37.4,33.8,87,30.11,10.0,SW,4.6,-,N/A,,Clear,230,2012-12-31 13:53:00
6:53 AM,37.9,34.0,86,30.13,10.0,SW,3.5,-,N/A,,Clear,230,2012-12-31 14:53:00
7:53 AM,41.0,35.1,79,30.16,10.0,West,4.6,-,N/A,,Clear,260,2012-12-31 15:53:00
8:53 AM,48.0,37.9,68,30.21,10.0,WNW,3.5,-,N/A,,Clear,300,2012-12-31 16:53:00
9:53 AM,54.0,36.0,51,30.23,10.0,West,3.5,-,N/A,,Clear,280,2012-12-31 17:53:00
10:53 AM,57.0,32.0,39,30.22,10.0,North,4.6,-,N/A,,Clear,350,2012-12-31 18:53:00
11:53 AM,59.0,28.0,31,30.21,10.0,North,5.8,-,N/A,,Clear,10,2012-12-31 19:53:00
12:53 PM,60.1,27.0,28,30.19,10.0,NNE,5.8,-,N/A,,Clear,20,2012-12-31 20:53:00
1:53 PM,61.0,21.9,22,30.17,10.0,Variable,3.5,-,N/A,,Clear,0,2012-12-31 21:53:00
2:53 PM,60.1,23.0,24,30.17,10.0,Calm,Calm,-,N/A,,Clear,0,2012-12-31 22:53:00
3:53 PM,60.1,23.0,24,30.17,10.0,Calm,Calm,-,N/A,,Clear,0,2012-12-31 23:53:00
4:53 PM,57.0,26.1,30,30.17,10.0,Calm,Calm,-,N/A,,Clear,0,2013-01-01 00:53:00
5:53 PM,53.1,28.9,40,30.18,10.0,Calm,Calm,-,N/A,,Clear,0,2013-01-01 01:53:00
6:53 PM,48.0,30.0,50,30.19,10.0,Calm,Calm,-,N/A,,Clear,0,2013-01-01 02:53:00
7:53 PM,46.9,30.9,54,30.20,10.0,Calm,Calm,-,N/A,,Clear,0,2013-01-01 03:53:00
8:53 PM,43.0,28.9,58,30.21,10.0,Calm,Calm,-,N/A,,Clear,0,2013-01-01 04:53:00
9:53 PM,44.1,28.9,55,30.23,10.0,ENE,3.5,-,N/A,,Clear,60,2013-01-01 05:53:00
10:53 PM,43.0,28.0,56,30.25,10.0,Calm,Calm,-,N/A,,Clear,0,2013-01-01 06:53:00
11:53 PM,42.1,26.1,53,30.23,8.0,Calm,Calm,-,N/A,,Clear,0,2013-01-01 07:53:00